Wind_Speed
24 24 23 24 25 24 22 20 19 19 18 17 17 17 16 16 17 16 15 15 13 12 11 11 12 13 14 13 13 12 11 10 11 12 12 11 10 10 11 10 10 9 9 9 10 10 10 10 10 10 11 11 10 10 9 9 8 8 8 8 8 7 7
25 25 24 24 24 23 22 21 20 19 18 17 18 17 16 15 15 16 15 15 14 13 12 12 12 13 14 14 14 12 11 11 11 12 12 12 11 11 11 11 10 10 9 9 9 9 10 10 10 11 11 11 10 10 10 10 9 9 8 8 8 8 7
27 26 25 24 23 22 22 21 20 20 20 18 18 17 16 15 14 14 14 15 14 14 13 13 13 13 14 15 15 14 13 12 12 12 12 12 11 11 11 11 11 10 9 9 9 9 10 10 11 11 11 11 11 10 10 10 10 9 9 9 8 8 8
30 27 26 24 23 22 21 21 20 21 21 19 18 16 15 14 13 13 13 14 15 15 14 14 14 14 14 15 15 15 14 14 14 14 13 13 13 12 12 12 12 11 10 10 10 10 10 10 10 11 11 11 11 11 10 10 10 9 9 9 8 8 8
31 29 27 25 25 24 23 21 21 22 22 21 19 17 16 15 14 13 13 13 15 15 16 16 16 15 15 15 15 15 16 16 15 15 15 15 14 13 12 12 12 12 11 11 11 11 11 11 11 11 11 11 11 11 11 10 10 10 9 9 8 8 8
31 30 29 27 26 26 24 22 22 23 23 22 20 19 18 17 15 14 12 13 13 15 16 17 17 17 16 16 15 15 16 16 16 16 16 16 15 14 14 13 13 13 12 12 12 12 12 12 12 12 12 12 11 11 11 11 10 10 9 9 8 8 8
30 30 30 29 28 27 26 24 23 24 24 23 22 21 20 19 17 15 14 13 12 14 16 17 17 18 18 17 17 16 16 16 17 17 18 18 17 16 15 14 14 14 13 13 13 13 13 14 14 14 13 13 12 12 11 11 10 10 9 9 9 9 8
31 30 30 30 30 28 27 26 25 25 25 24 24 23 23 21 19 18 16 14 13 14 15 16 17 18 18 18 18 18 17 17 17 18 19 19 18 18 16 15 15 15 14 14 14 14 14 15 15 15 14 13 13 12 12 12 11 10 10 10 9 9 9
31 30 29 29 30 29 28 27 27 26 27 27 25 24 23 23 22 20 18 17 15 14 15 16 17 17 19 19 19 19 19 19 19 19 19 19 19 19 18 17 16 16 15 15 15 15 15 15 15 15 15 14 14 14 13 13 12 11 11 10 10 9 9
29 31 30 28 27 27 27 28 28 27 28 28 28 26 25 24 24 23 21 19 18 16 15 16 17 18 19 19 19 20 20 20 20 20 20 19 20 20 20 19 18 17 17 16 16 16 16 16 16 15 15 15 15 14 14 14 13 12 12 11 10 10 10
24 28 32 30 27 26 26 27 28 28 28 28 28 27 27 26 26 25 23 22 21 20 19 19 19 19 20 21 21 21 21 21 21 21 21 21 21 21 22 22 21 20 19 18 17 17 16 16 16 16 15 15 15 15 15 14 14 13 13 12 12 11 11
21 24 28 28 27 27 26 26 28 28 27 26 27 27 27 27 28 28 26 25 25 24 24 23 23 22 22 22 23 23 23 22 22 22 22 22 23 22 22 23 23 22 22 21 20 19 18 18 17 16 17 16 16 16 16 15 15 14 14 13 13 13 13
20 22 23 25 26 27 27 26 26 25 24 25 27 27 26 27 30 31 30 28 28 27 28 27 25 25 24 24 24 24 24 24 23 23 23 23 23 23 23 23 23 23 23 23 22 21 21 20 19 18 18 18 18 18 17 17 16 16 15 15 14 14 14
18 19 20 22 24 25 25 25 25 24 24 25 25 25 25 25 28 31 31 30 30 30 30 28 26 24 24 24 24 24 24 24 24 24 24 23 23 23 22 22 22 23 23 24 24 24 23 22 21 20 20 20 20 20 19 19 18 17 17 17 16 16 15
17 18 19 20 20 21 22 22 24 24 24 23 23 24 24 24 25 28 30 31 31 31 31 29 26 24 25 26 27 26 25 25 25 25 25 24 24 23 23 23 23 22 22 23 24 24 25 24 24 23 22 21 21 21 21 21 20 19 19 19 18 18 17
14 16 17 18 17 17 17 18 19 20 20 20 21 24 25 25 25 26 27 28 29 30 30 28 26 27 27 27 27 27 27 26 26 26 25 25 24 24 24 23 23 23 23 23 23 23 24 25 25 25 24 23 22 22 22 22 21 21 22 21 21 21 20
13 13 14 15 15 14 14 15 15 17 18 20 21 23 24 23 24 25 26 26 27 29 28 25 25 27 26 24 24 25 26 27 27 27 26 25 25 25 25 25 25 24 24 23 23 23 24 24 25 26 26 25 24 24 23 23 23 23 24 24 24 23 23
13 14 14 14 15 15 15 15 15 16 18 20 21 22 22 23 24 25 24 25 26 25 23 22 23 26 25 24 23 23 25 27 28 29 28 27 27 27 27 26 26 26 25 24 24 25 25 25 25 25 25 24 24 24 25 25 25 25 25 26 26 26 25
14 14 14 15 16 17 17 15 16 17 18 19 20 21 22 23 24 23 22 24 25 23 21 22 24 25 24 23 23 23 24 26 27 28 28 28 29 30 29 28 27 26 25 25 26 26 26 27 27 27 26 25 24 25 26 26 27 26 27 27 27 28 27
15 15 16 15 15 17 19 17 16 18 19 20 21 23 24 22 21 21 22 24 24 21 20 19 19 20 20 19 20 21 21 22 24 25 27 27 28 30 30 30 29 27 26 26 26 26 27 27 28 29 29 27 26 26 26 26 26 26 27 27 28 28 28
15 15 16 15 13 16 18 18 16 16 19 21 21 22 22 20 20 21 21 21 20 19 18 15 12 14 15 15 16 17 17 18 20 21 22 23 24 26 28 29 29 28 27 27 26 26 26 27 29 30 31 30 28 28 27 26 25 25 25 26 27 28 28
13 13 14 14 13 14 16 16 16 14 15 18 19 18 17 17 18 18 17 16 17 16 16 14 11 12 14 12 12 13 13 15 16 17 18 19 20 22 24 26 27 27 27 26 26 25 25 26 28 30 31 30 29 29 27 26 26 26 26 26 27 28 28
17 18 17 16 15 14 15 16 17 14 12 12 13 13 15 15 15 15 15 15 14 13 14 14 13 13 14 13 12 12 12 13 15 16 17 17 18 20 21 21 22 22 23 23 24 25 26 28 28 29 29 29 28 28 27 26 25 24 25 26 27 28 29
21 21 20 17 15 14 15 16 16 14 12 10 9 11 15 15 14 13 13 13 13 12 13 14 14 14 15 14 14 14 13 13 14 15 15 15 15 16 17 17 18 19 20 21 22 24 27 29 28 26 26 26 26 25 25 25 24 23 24 25 26 28 29
21 22 20 18 16 15 16 16 15 12 9 8 8 12 16 17 15 14 13 12 10 10 11 12 13 13 13 14 14 14 14 14 14 14 14 15 15 15 15 16 17 19 21 22 23 25 26 25 24 23 24 24 24 24 24 25 24 24 25 26 27 28 29
19 20 19 18 16 14 14 14 12 9 7 7 8 11 14 16 15 14 13 12 11 11 12 12 11 10 11 12 13 13 13 13 13 14 15 16 16 16 16 16 17 19 21 22 23 24 23 22 21 21 23 22 21 20 21 23 24 25 26 27 28 30 31
18 18 16 15 13 12 11 11 9 8 8 9 9 10 11 13 13 12 12 12 13 13 13 13 12 11 11 12 12 13 13 13 13 14 15 15 15 15 15 15 15 16 17 17 18 19 19 18 19 20 21 21 21 20 21 21 22 22 23 24 26 29 31
16 16 16 15 14 13 11 10 10 10 9 9 9 8 9 9 9 9 9 9 10 10 10 11 11 11 11 11 12 12 12 12 12 13 13 13 13 13 12 12 12 12 11 11 11 12 12 12 13 14 16 18 20 22 22 23 23 23 23 23 24 26 29
15 15 16 15 14 14 13 12 11 10 9 8 8 7 7 7 8 8 8 8 8 8 7 8 8 9 9 10 10 10 10 10 11 11 11 12 12 11 11 11 10 10 9 9 9 10 10 10 11 11 11 12 14 16 17 18 19 20 20 20 21 23 25
18 17 17 16 15 14 14 13 12 10 8 7 6 5 6 6 8 9 10 10 10 10 9 9 8 9 9 9 9 10 10 11 11 12 12 12 12 12 12 12 12 12 12 12 12 13 13 13 14 14 14 14 14 14 14 15 16 16 16 16 17 17 19
19 20 18 18 17 15 13 12 10 8 7 6 6 6 6 7 8 9 11 12 13 14 14 13 13 12 12 12 12 12 13 13 14 14 15 16 16 16 16 15 16 16 16 17 17 17 18 18 18 19 19 19 19 19 19 19 19 19 20 20 20 20 20
15 17 16 15 15 14 12 10 8 8 7 7 7 7 8 9 10 11 12 13 14 16 16 17 17 17 17 16 16 16 16 16 16 17 18 18 19 19 19 19 20 21 21 21 22 22 22 23 23 23 23 23 23 24 24 24 25 25 25 25 25 25 25
12 13 13 14 14 13 11 9 8 8 7 7 6 7 8 9 10 11 13 14 15 16 17 18 19 20 21 21 21 21 20 20 20 20 20 21 21 22 22 23 23 24 25 26 26 26 26 26 27 27 27 27 27 27 28 28 29 29 30 30 30 29 29
14 15 14 14 15 14 12 11 11 10 9 8 8 9 10 11 12 13 14 14 15 16 17 18 19 20 21 22 23 24 24 24 24 24 24 24 24 25 25 26 26 27 28 29 29 29 30 30 30 30 31 31 31 31 31 32 32 32 32 32 31 31 30
13 15 16 17 16 15 14 13 12 12 11 10 11 13 14 15 15 16 16 16 16 16 16 17 17 18 19 20 22 23 25 25 26 26 27 27 27 27 27 27 28 29 30 30 31 31 31 31 31 32 32 33 33 33 33 33 32 32 32 32 31 30 30
9 11 17 20 18 15 13 12 12 13 13 13 14 16 17 18 19 19 19 19 18 18 18 18 18 18 18 19 20 21 22 23 24 25 26 27 27 27 27 27 27 28 29 30 31 31 31 32 31 31 31 32 32 32 32 32 32 31 31 31 30 29 29
8 10 15 18 15 11 10 11 13 15 16 16 17 18 20 21 22 22 22 22 21 21 20 20 20 20 20 20 20 20 21 22 22 23 24 24 25 26 26 26 26 26 27 28 30 30 31 31 31 31 30 30 30 30 29 30 30 30 30 29 29 28 28
7 9 12 15 14 13 14 17 19 20 20 20 20 21 23 24 24 25 25 24 24 23 22 22 22 21 21 21 21 21 21 21 21 22 22 23 23 24 24 25 25 25 25 26 27 28 29 29 30 30 30 30 29 29 28 28 28 28 28 28 28 27 27
Wind_Direction
189 182 176 174 174 172 168 166 169 172 175 181 184 182 186 194 198 195 190 186 184 185 186 188 192 192 191 191 190 187 183 180 180 175 169 165 164 162 162 163 163 166 172 177 181 182 183 188 192 192 191 194 198 200 203 206 210 215 218 221 222 225 226
198 190 182 179 178 175 170 168 171 173 174 180 185 185 186 191 196 197 195 191 188 187 187 189 192 194 196 197 197 194 189 186 188 186 179 175 174 173 174 172 173 176 177 177 176 177 182 187 191 193 194 194 198 201 203 206 209 213 218 221 224 229 233
203 198 189 184 182 178 174 173 174 175 174 177 185 187 187 186 187 192 195 196 194 193 193 193 194 196 198 201 200 199 195 191 192 194 190 187 185 186 185 180 180 184 182 179 177 177 182 187 191 194 194 194 196 200 204 208 211 215 218 222 225 229 232
205 204 197 192 187 184 182 179 177 178 176 175 180 185 187 184 181 183 191 197 199 199 198 198 199 199 200 202 201 201 199 195 194 196 197 197 194 194 194 189 186 188 187 184 183 182 183 187 191 193 192 192 195 198 202 207 212 218 221 224 228 230 232
208 207 204 200 196 192 189 184 181 182 180 178 178 181 185 185 183 183 190 197 201 202 202 202 202 202 202 203 204 203 202 200 199 199 200 201 199 199 201 199 194 193 193 191 188 187 187 189 192 195 195 195 197 198 200 204 211 217 220 223 225 229 232
211 210 209 207 204 202 197 192 187 186 184 183 181 181 185 188 188 188 193 199 202 205 207 207 206 205 204 204 206 207 206 205 204 204 204 203 202 201 204 206 202 199 199 197 196 195 193 193 195 197 198 200 202 202 202 204 209 214 217 218 220 225 231
216 214 213 211 210 209 207 203 197 191 189 188 186 185 187 190 192 194 200 205 205 207 209 211 211 210 207 205 206 208 210 210 209 209 210 208 206 204 205 207 207 207 205 202 203 204 202 200 200 201 202 203 205 207 208 209 209 212 214 215 217 220 225
221 221 219 216 216 215 215 214 209 201 197 194 193 192 191 193 196 199 205 211 213 212 211 212 213 213 212 209 207 208 210 212 212 212 213 213 211 208 208 209 210 212 211 209 209 209 209 210 208 207 207 208 210 213 214 215 214 214 214 215 216 218 221
226 226 223 220 219 220 221 220 216 211 207 202 200 198 197 197 199 201 207 214 220 221 218 216 215 215 215 214 211 210 211 214 215 215 215 216 215 213 212 213 213 214 214 215 215 214 214 216 216 214 213 213 215 216 217 219 219 219 219 219 218 218 220
222 224 224 224 223 223 223 224 221 216 213 210 207 205 203 203 203 203 206 213 221 226 224 222 220 217 217 216 215 213 213 215 216 218 218 217 217 216 216 216 217 217 217 218 219 218 219 221 222 222 221 219 219 219 219 220 221 222 224 225 225 225 226
212 215 219 226 231 229 225 225 225 222 218 215 214 213 211 209 208 208 208 212 219 223 223 223 223 221 218 216 216 215 215 215 216 218 219 219 219 219 218 219 220 220 221 221 222 222 223 226 227 227 227 227 226 224 223 223 222 223 225 228 232 233 234
209 209 211 215 223 229 229 229 229 228 223 219 219 219 219 217 215 213 211 212 217 221 222 221 220 221 220 219 218 217 217 217 217 218 218 219 221 221 221 222 222 223 224 224 225 224 225 227 229 231 231 232 231 230 229 229 227 226 226 229 234 239 242
207 207 208 209 213 223 230 230 230 229 227 225 223 223 225 225 220 216 215 216 219 223 226 225 222 221 222 223 222 222 221 221 221 221 220 220 222 223 224 225 225 226 227 227 228 229 229 229 229 231 232 234 235 235 236 235 233 231 231 232 235 238 242
202 200 206 210 211 217 222 224 226 228 225 224 224 225 226 228 224 221 222 224 226 227 229 229 227 226 226 228 229 227 226 226 226 226 225 223 222 223 226 227 227 229 230 231 232 232 233 233 233 234 234 235 237 238 240 240 239 237 236 236 238 239 242
195 195 201 206 207 211 216 219 222 225 222 220 222 224 225 227 228 228 228 231 232 232 232 231 231 230 229 231 233 232 230 230 230 230 230 228 226 225 226 227 228 230 231 233 235 236 236 236 237 237 237 238 239 240 242 243 243 243 242 241 241 242 243
190 192 197 199 199 203 210 213 217 219 218 219 223 226 227 227 229 230 231 235 237 237 237 236 235 234 231 230 233 234 234 234 234 234 235 234 233 231 231 231 231 230 231 233 236 238 240 240 240 239 239 240 241 242 243 245 246 246 247 247 247 247 248
195 198 200 202 203 203 201 201 206 208 209 214 222 228 230 228 227 229 233 237 240 240 240 239 239 241 239 236 237 236 235 236 236 236 237 238 239 239 238 237 236 235 235 236 237 239 241 242 243 242 241 241 242 244 245 246 246 247 249 252 253 254 255
203 204 205 209 212 211 204 198 200 202 202 207 215 221 225 225 225 228 232 234 237 239 238 234 235 240 241 239 238 235 234 234 234 234 236 238 241 244 242 241 241 241 240 240 240 242 242 243 245 244 243 242 243 245 246 247 247 247 249 252 255 257 259
207 207 209 212 214 214 209 201 201 202 201 205 210 212 216 220 221 222 224 228 232 235 235 233 234 238 238 235 234 232 232 233 233 234 236 237 241 244 243 241 242 242 243 243 243 244 244 245 245 245 244 242 242 244 246 247 247 248 249 251 254 257 259
209 211 208 204 203 209 206 198 199 202 199 204 209 207 207 212 214 215 218 224 230 234 234 232 232 236 237 232 229 228 230 234 236 236 238 239 241 243 243 242 243 244 244 243 243 244 246 246 246 246 244 242 242 244 245 247 248 249 250 252 255 257 259
210 203 196 188 187 203 205 198 200 196 185 192 202 200 197 200 206 211 214 219 225 228 229 223 213 221 227 225 223 222 223 231 236 236 237 238 239 241 242 242 243 244 244 243 243 244 247 249 248 247 245 243 242 243 246 249 251 253 254 255 256 258 260
194 180 185 189 187 196 200 201 207 197 176 183 195 195 195 201 211 216 217 216 211 211 220 220 204 204 213 213 214 217 217 223 227 226 228 230 232 235 237 238 240 243 244 244 243 244 248 251 249 245 244 243 244 245 248 250 253 257 259 260 260 260 261
172 168 179 187 183 182 185 195 206 204 191 191 191 192 200 209 217 223 225 223 211 199 209 218 208 202 206 206 207 210 210 212 214 215 220 226 230 232 232 233 236 239 242 244 244 245 249 251 248 244 243 243 244 246 248 250 253 257 261 262 262 262 261
173 176 182 186 185 186 188 196 206 209 208 208 200 200 208 213 217 219 219 221 217 206 209 219 218 214 214 211 210 210 208 209 211 213 219 224 228 231 232 232 234 235 237 240 243 246 249 250 248 246 246 246 247 248 249 251 254 257 259 260 261 261 260
174 181 190 197 200 201 203 209 217 221 224 228 221 211 209 211 214 215 213 212 211 207 211 219 221 221 220 220 220 218 216 217 218 218 222 225 225 227 230 230 230 232 232 234 237 241 245 249 251 252 252 250 249 250 253 256 258 260 260 261 262 262 261
166 174 183 192 196 198 205 211 213 212 206 204 202 196 196 201 205 207 208 208 205 204 207 208 207 206 207 211 216 218 219 220 220 219 224 227 225 226 229 229 230 231 231 231 233 236 240 243 246 251 254 254 253 252 254 257 260 261 262 262 263 263 263
157 161 164 168 169 169 177 182 174 166 163 164 167 170 176 186 191 193 196 198 198 199 199 198 198 196 193 194 199 205 209 210 210 212 218 222 222 223 227 229 231 235 237 236 237 239 241 244 247 251 257 262 264 263 260 260 260 261 262 263 263 262 262
152 156 156 155 155 153 155 158 154 151 149 147 150 157 166 176 183 188 191 192 194 196 197 198 200 199 196 193 193 197 202 204 205 207 210 214 216 217 219 222 226 233 239 242 245 246 248 250 252 255 257 259 262 262 261 261 262 262 262 262 262 260 260
154 157 158 158 159 158 158 159 157 155 155 155 159 168 178 188 197 204 208 209 210 210 211 213 216 217 218 215 210 208 211 213 216 218 219 220 220 220 220 222 227 234 241 245 248 251 251 250 251 253 253 253 254 255 255 255 259 261 262 261 261 259 259
159 160 161 162 165 165 164 164 162 163 167 173 182 193 204 215 222 228 231 233 233 234 234 235 238 242 245 247 247 243 239 236 235 236 237 238 239 239 239 240 242 246 250 253 254 255 256 256 256 257 258 259 259 259 259 259 262 265 267 267 267 265 263
167 160 160 161 164 167 169 170 174 183 197 214 231 245 253 256 256 255 253 251 250 250 250 250 250 251 253 256 259 260 260 258 255 252 251 251 250 252 253 255 256 256 257 257 258 259 260 261 262 264 266 268 269 271 272 273 274 275 277 277 277 276 275
175 165 165 165 166 171 177 183 195 208 221 234 247 259 268 272 272 271 269 267 264 262 261 260 259 258 257 257 258 260 261 263 264 265 265 264 263 262 262 262 262 262 262 261 261 261 262 263 265 267 268 271 273 275 277 279 280 281 282 282 283 282 282
190 187 186 180 179 183 189 201 218 228 234 243 257 272 280 281 281 279 276 275 274 272 271 269 267 266 265 264 263 263 263 264 265 267 268 270 271 271 271 270 269 268 268 268 268 267 268 268 270 271 272 274 275 277 279 280 282 283 284 284 285 285 285
206 209 211 204 198 196 199 211 226 234 241 255 270 282 287 288 288 286 281 278 276 275 274 273 272 271 270 269 269 269 268 268 269 269 269 270 270 271 272 273 273 273 272 272 272 272 272 273 273 274 275 276 277 278 279 279 280 281 282 283 283 283 283
216 217 221 215 206 204 207 213 225 236 247 262 273 281 287 290 293 292 289 285 280 277 275 275 274 273 273 271 271 270 270 270 270 270 271 271 270 270 270 270 271 272 272 272 272 272 272 272 273 273 274 275 276 277 277 278 278 279 280 280 280 281 280
269 251 235 219 206 207 217 225 237 247 254 265 274 281 287 292 295 296 294 291 288 284 282 280 279 278 277 275 273 272 270 269 269 269 269 270 270 270 270 269 269 269 270 271 272 272 273 273 273 273 273 273 274 274 275 276 276 277 277 278 278 278 279
297 279 250 228 210 210 232 249 258 261 264 270 275 281 287 291 294 296 296 294 290 287 286 285 284 283 282 280 278 276 273 271 269 268 268 268 268 269 270 269 269 269 269 270 271 272 273 274 274 275 275 274 274 274 274 274 275 275 275 276 276 276 276
243 235 232 229 229 240 255 264 266 266 267 270 275 281 286 290 293 294 294 292 290 288 287 285 285 285 285 283 281 279 275 272 270 268 266 266 266 267 269 269 270 270 270 270 271 272 273 274 275 276 276 276 277 276 276 275 275 275 275 275 275 275 274
Height
3201 3202 3204 3206 3209 3211 3213 3216 3218 3220 3221 3223 3225 3226 3228 3229 3230 3232 3234 3235 3236 3238 3239 3241 3242 3243 3244 3245 3246 3247 3249 3249 3250 3251 3252 3252 3253 3254 3255 3256 3257 3258 3258 3259 3260 3260 3261 3262 3263 3264 3265 3266 3267 3268 3269 3269 3270 3271 3272 3272 3273 3273 3273
3199 3201 3203 3205 3208 3210 3213 3215 3217 3219 3221 3223 3224 3226 3227 3228 3230 3231 3233 3235 3236 3237 3239 3240 3241 3243 3244 3245 3246 3247 3248 3249 3250 3251 3252 3252 3253 3254 3255 3256 3257 3258 3258 3259 3260 3260 3261 3262 3263 3264 3264 3265 3266 3267 3268 3269 3270 3270 3271 3272 3272 3273 3273
3197 3200 3202 3204 3207 3210 3212 3214 3216 3218 3220 3222 3224 3225 3226 3228 3229 3231 3232 3234 3235 3237 3238 3240 3241 3242 3243 3244 3246 3247 3248 3249 3250 3251 3252 3253 3253 3255 3255 3256 3257 3257 3258 3259 3260 3260 3261 3262 3263 3263 3264 3265 3266 3267 3268 3268 3269 3270 3270 3271 3271 3272 3272
3195 3198 3201 3203 3206 3209 3211 3213 3216 3217 3219 3221 3223 3225 3226 3227 3229 3230 3231 3233 3234 3236 3237 3239 3240 3241 3242 3243 3245 3246 3247 3249 3249 3250 3252 3252 3253 3255 3255 3256 3257 3257 3258 3259 3259 3260 3261 3262 3262 3263 3264 3265 3265 3266 3267 3268 3268 3269 3270 3270 3271 3271 3272
3193 3196 3199 3202 3204 3207 3209 3212 3214 3216 3218 3220 3222 3224 3226 3227 3228 3229 3230 3232 3233 3235 3236 3237 3239 3240 3241 3242 3244 3245 3246 3248 3249 3250 3251 3252 3253 3254 3255 3256 3256 3257 3258 3258 3259 3260 3260 3261 3262 3263 3264 3264 3265 3265 3266 3267 3267 3268 3269 3269 3270 3270 3271
3191 3194 3197 3200 3202 3205 3207 3210 3213 3215 3217 3219 3221 3223 3224 3226 3227 3228 3229 3231 3232 3233 3235 3236 3238 3239 3240 3241 3243 3244 3245 3247 3248 3249 3250 3251 3252 3253 3254 3255 3256 3257 3257 3258 3259 3259 3260 3261 3262 3262 3263 3264 3264 3265 3265 3266 3266 3267 3268 3268 3269 3269 3270
3189 3192 3195 3198 3200 3203 3206 3208 3211 3213 3216 3218 3219 3221 3223 3224 3226 3227 3228 3230 3231 3232 3234 3235 3237 3238 3239 3240 3242 3243 3244 3246 3247 3248 3249 3250 3251 3252 3253 3254 3255 3256 3257 3258 3259 3259 3260 3261 3261 3262 3263 3263 3264 3265 3265 3265 3266 3266 3267 3267 3268 3269 3269
3187 3190 3193 3196 3198 3201 3204 3206 3209 3212 3214 3216 3218 3219 3221 3222 3224 3226 3227 3228 3230 3231 3232 3234 3235 3237 3238 3239 3240 3241 3243 3244 3245 3246 3247 3249 3250 3251 3252 3253 3254 3255 3256 3257 3258 3259 3259 3260 3261 3261 3262 3263 3263 3264 3265 3265 3265 3266 3266 3267 3267 3268 3268
3186 3189 3191 3194 3197 3199 3201 3204 3206 3209 3212 3214 3216 3218 3219 3221 3222 3224 3226 3227 3228 3230 3231 3233 3234 3236 3237 3238 3239 3240 3241 3243 3244 3245 3246 3247 3248 3250 3251 3252 3252 3253 3254 3255 3256 3258 3259 3259 3260 3261 3261 3262 3262 3263 3264 3264 3265 3266 3266 3266 3267 3267 3267
3184 3187 3189 3192 3194 3196 3199 3201 3203 3206 3209 3212 3214 3216 3218 3219 3221 3223 3224 3226 3227 3229 3230 3231 3233 3234 3235 3237 3238 3239 3240 3241 3242 3243 3245 3246 3247 3248 3249 3250 3251 3252 3253 3254 3255 3256 3257 3258 3259 3260 3261 3261 3262 3262 3263 3263 3264 3265 3265 3266 3266 3266 3267
3182 3185 3187 3190 3192 3194 3196 3198 3200 3203 3206 3209 3212 3214 3216 3218 3219 3221 3222 3224 3226 3227 3228 3230 3231 3232 3233 3235 3236 3237 3238 3239 3240 3241 3243 3244 3245 3246 3247 3248 3249 3250 3251 3252 3253 3254 3255 3256 3258 3259 3259 3260 3260 3261 3261 3261 3262 3263 3264 3264 3265 3266 3266
3180 3182 3185 3188 3190 3192 3193 3195 3198 3200 3203 3207 3209 3211 3213 3215 3217 3218 3220 3221 3223 3224 3225 3226 3228 3229 3231 3232 3233 3235 3236 3237 3238 3239 3241 3242 3243 3244 3245 3246 3247 3249 3250 3251 3252 3252 3253 3254 3256 3257 3258 3258 3259 3259 3260 3260 3261 3261 3262 3263 3263 3264 3265
3178 3181 3183 3186 3188 3190 3191 3193 3195 3198 3201 3204 3206 3208 3210 3211 3214 3215 3217 3219 3220 3221 3222 3223 3225 3226 3228 3229 3231 3232 3234 3235 3237 3238 3239 3240 3241 3243 3244 3245 3246 3247 3248 3249 3250 3251 3252 3253 3254 3255 3256 3256 3257 3258 3258 3259 3259 3260 3260 3261 3262 3263 3263
3178 3180 3182 3184 3186 3187 3189 3191 3193 3195 3198 3200 3202 3204 3206 3208 3211 3213 3215 3216 3217 3218 3219 3221 3223 3225 3226 3228 3229 3230 3232 3234 3235 3236 3237 3239 3240 3241 3242 3243 3244 3245 3246 3247 3248 3249 3250 3251 3252 3253 3254 3255 3255 3256 3257 3257 3258 3259 3259 3259 3260 3260 3261
3177 3179 3180 3182 3184 3186 3187 3188 3190 3192 3194 3196 3198 3200 3203 3206 3208 3210 3211 3212 3213 3214 3215 3218 3222 3223 3224 3226 3227 3228 3230 3232 3233 3234 3235 3237 3238 3239 3240 3241 3241 3242 3244 3245 3246 3247 3248 3249 3250 3251 3252 3253 3254 3254 3255 3256 3257 3258 3258 3258 3258 3258 3259
3176 3178 3179 3180 3182 3184 3185 3186 3188 3189 3191 3193 3194 3196 3199 3202 3205 3207 3208 3209 3210 3211 3214 3218 3220 3219 3220 3222 3225 3226 3228 3229 3230 3231 3233 3234 3236 3237 3238 3239 3239 3240 3241 3242 3243 3245 3246 3247 3248 3249 3250 3251 3252 3253 3253 3254 3255 3256 3256 3256 3256 3256 3257
3175 3176 3178 3179 3180 3182 3183 3184 3185 3187 3189 3190 3191 3193 3196 3199 3202 3204 3205 3206 3206 3208 3212 3217 3218 3215 3215 3219 3222 3224 3225 3226 3227 3229 3230 3231 3233 3234 3235 3236 3237 3238 3239 3240 3241 3242 3243 3244 3245 3246 3247 3248 3249 3251 3252 3252 3253 3253 3254 3254 3255 3255 3255
3174 3175 3177 3178 3179 3180 3181 3183 3184 3185 3186 3188 3189 3190 3193 3196 3198 3200 3202 3202 3203 3205 3210 3214 3214 3213 3213 3216 3219 3221 3222 3223 3224 3226 3227 3228 3230 3231 3232 3233 3234 3236 3237 3237 3238 3239 3240 3241 3243 3244 3245 3246 3247 3248 3248 3249 3249 3250 3251 3252 3252 3253 3254
3173 3174 3175 3176 3177 3178 3179 3181 3182 3183 3184 3186 3187 3189 3191 3193 3195 3198 3199 3199 3200 3202 3206 3209 3210 3210 3211 3214 3216 3217 3219 3219 3220 3222 3223 3225 3227 3228 3229 3230 3231 3233 3234 3234 3235 3236 3237 3238 3240 3241 3242 3243 3243 3244 3245 3245 3246 3247 3248 3249 3250 3250 3251
3172 3173 3174 3175 3176 3177 3178 3179 3180 3181 3182 3184 3186 3187 3189 3191 3193 3196 3197 3197 3198 3200 3202 3204 3206 3207 3209 3211 3212 3214 3215 3216 3218 3219 3220 3222 3224 3225 3226 3227 3228 3230 3231 3231 3232 3233 3233 3235 3236 3237 3238 3239 3240 3240 3241 3242 3243 3244 3245 3246 3247 3248 3248
3171 3172 3173 3174 3175 3176 3177 3179 3180 3180 3181 3183 3184 3184 3185 3187 3191 3194 3195 3197 3198 3199 3200 3202 3204 3206 3207 3208 3209 3211 3212 3213 3214 3216 3217 3219 3220 3221 3222 3223 3225 3226 3227 3228 3228 3229 3230 3231 3232 3234 3235 3236 3236 3236 3237 3239 3240 3241 3242 3243 3244 3245 3245
3170 3171 3172 3173 3175 3176 3177 3179 3179 3180 3182 3183 3183 3183 3184 3186 3189 3192 3194 3196 3196 3197 3199 3200 3202 3204 3205 3206 3207 3208 3209 3210 3211 3212 3214 3215 3217 3217 3218 3219 3221 3222 3224 3224 3225 3225 3226 3227 3229 3230 3232 3232 3233 3233 3235 3236 3238 3239 3240 3241 3241 3242 3243
3169 3171 3172 3173 3175 3176 3178 3179 3179 3179 3182 3183 3184 3185 3186 3187 3189 3190 3192 3194 3194 3195 3197 3199 3201 3203 3204 3205 3206 3207 3208 3209 3209 3210 3212 3213 3214 3215 3215 3216 3217 3218 3220 3221 3222 3222 3223 3224 3226 3227 3228 3229 3229 3231 3232 3233 3234 3236 3237 3237 3238 3239 3239
3169 3170 3172 3173 3174 3176 3177 3178 3178 3179 3181 3183 3184 3186 3187 3188 3189 3190 3191 3192 3193 3194 3196 3197 3199 3201 3202 3203 3204 3205 3206 3207 3208 3209 3210 3211 3212 3212 3213 3213 3214 3215 3217 3218 3219 3220 3221 3223 3224 3224 3225 3225 3226 3228 3229 3229 3231 3232 3233 3233 3234 3236 3236
3168 3169 3171 3171 3173 3175 3176 3177 3177 3179 3180 3182 3183 3185 3187 3188 3189 3189 3190 3191 3192 3193 3194 3196 3197 3198 3199 3201 3202 3203 3204 3205 3206 3207 3208 3209 3210 3211 3211 3212 3212 3213 3214 3215 3217 3218 3220 3221 3222 3222 3223 3223 3224 3225 3225 3226 3227 3228 3229 3230 3231 3232 3233
3167 3168 3170 3171 3172 3174 3175 3176 3177 3178 3180 3181 3183 3184 3186 3187 3188 3189 3189 3190 3191 3192 3193 3194 3195 3196 3197 3198 3200 3201 3202 3203 3204 3205 3206 3207 3208 3209 3210 3210 3210 3211 3212 3213 3214 3216 3217 3219 3220 3220 3220 3219 3220 3221 3222 3223 3224 3224 3225 3226 3227 3228 3229
3166 3167 3169 3170 3171 3173 3175 3176 3177 3178 3180 3181 3182 3184 3185 3186 3187 3188 3189 3190 3191 3192 3193 3193 3194 3195 3196 3197 3198 3199 3200 3201 3202 3203 3204 3205 3206 3207 3208 3208 3209 3209 3210 3210 3211 3213 3214 3215 3216 3216 3217 3216 3217 3218 3219 3220 3221 3221 3222 3222 3223 3223 3224
3166 3167 3168 3169 3170 3172 3174 3176 3177 3178 3179 3181 3182 3184 3185 3186 3187 3187 3188 3189 3190 3191 3191 3192 3193 3194 3195 3196 3197 3198 3199 3200 3201 3202 3203 3203 3204 3205 3206 3207 3207 3207 3208 3208 3209 3209 3210 3211 3212 3213 3214 3215 3215 3216 3216 3217 3218 3218 3219 3219 3219 3220 3221
3165 3167 3168 3169 3170 3172 3174 3175 3177 3177 3179 3180 3182 3183 3184 3185 3186 3187 3188 3188 3189 3190 3190 3191 3192 3193 3194 3195 3196 3197 3198 3199 3200 3200 3201 3202 3203 3204 3204 3205 3205 3206 3206 3207 3207 3208 3208 3209 3210 3212 3213 3214 3214 3215 3215 3216 3216 3216 3216 3217 3217 3218 3218
3164 3166 3168 3169 3170 3172 3173 3174 3175 3176 3178 3179 3181 3182 3183 3184 3185 3186 3187 3188 3188 3189 3189 3190 3191 3191 3192 3193 3194 3196 3197 3198 3198 3199 3200 3200 3201 3202 3203 3203 3204 3205 3205 3206 3206 3207 3207 3208 3209 3210 3211 3212 3212 3213 3214 3214 3214 3214 3214 3214 3215 3215 3215
3164 3165 3167 3168 3170 3171 3172 3173 3174 3174 3175 3177 3178 3180 3181 3182 3183 3185 3185 3186 3187 3187 3188 3189 3189 3190 3191 3192 3193 3194 3195 3196 3196 3197 3198 3199 3199 3200 3201 3202 3202 3203 3204 3204 3205 3205 3206 3206 3207 3207 3208 3208 3209 3209 3210 3210 3211 3211 3211 3212 3212 3212 3212
3163 3164 3166 3167 3169 3170 3171 3172 3173 3173 3174 3174 3175 3177 3178 3180 3181 3182 3183 3184 3185 3186 3186 3187 3188 3189 3190 3190 3191 3192 3193 3193 3194 3195 3195 3196 3197 3198 3199 3200 3200 3201 3201 3202 3203 3203 3203 3204 3204 3204 3204 3205 3205 3205 3206 3206 3206 3207 3207 3208 3208 3208 3208
3162 3163 3164 3165 3166 3168 3170 3171 3171 3172 3172 3173 3174 3175 3176 3177 3178 3180 3181 3181 3182 3183 3184 3185 3185 3186 3187 3188 3189 3190 3190 3191 3192 3192 3193 3193 3194 3195 3196 3197 3197 3198 3198 3199 3199 3200 3200 3200 3200 3200 3201 3201 3201 3202 3202 3202 3202 3202 3202 3203 3203 3203 3203
3159 3160 3161 3163 3164 3165 3167 3168 3169 3170 3171 3172 3172 3173 3174 3175 3176 3177 3178 3179 3180 3180 3181 3182 3182 3183 3184 3185 3185 3186 3187 3188 3188 3189 3190 3190 3191 3192 3192 3193 3193 3193 3194 3195 3195 3195 3196 3196 3196 3196 3196 3196 3197 3197 3197 3198 3198 3198 3198 3198 3198 3198 3198
3154 3156 3159 3161 3162 3163 3164 3165 3166 3168 3168 3169 3170 3171 3171 3173 3174 3175 3175 3176 3177 3178 3178 3179 3179 3180 3180 3181 3182 3182 3183 3184 3184 3185 3186 3186 3187 3188 3188 3189 3189 3189 3189 3189 3190 3190 3191 3191 3191 3192 3192 3192 3192 3192 3193 3193 3193 3193 3193 3193 3193 3193 3194
3152 3154 3156 3158 3159 3160 3162 3163 3164 3165 3166 3166 3167 3167 3168 3169 3170 3171 3172 3173 3173 3174 3175 3175 3176 3176 3177 3177 3178 3178 3179 3180 3180 3181 3181 3181 3182 3182 3183 3184 3185 3185 3184 3184 3184 3184 3185 3185 3186 3186 3187 3187 3187 3188 3188 3188 3188 3189 3189 3189 3189 3189 3189
3153 3154 3156 3157 3158 3158 3160 3161 3162 3162 3163 3163 3164 3165 3166 3166 3167 3168 3169 3169 3170 3170 3171 3172 3172 3173 3173 3174 3174 3175 3175 3176 3176 3176 3177 3177 3177 3177 3178 3178 3179 3180 3180 3180 3180 3180 3180 3180 3180 3181 3181 3182 3182 3183 3183 3184 3184 3184 3184 3185 3185 3185 3185
3154 3155 3156 3156 3156 3156 3157 3159 3159 3160 3160 3160 3161 3162 3163 3164 3164 3165 3165 3166 3166 3167 3167 3168 3168 3169 3169 3170 3170 3171 3171 3172 3172 3172 3173 3173 3173 3173 3173 3173 3174 3174 3175 3175 3175 3175 3175 3175 3175 3175 3176 3176 3177 3178 3178 3179 3179 3180 3180 3180 3181 3181 3181